Hays, KS

7:54 PM CST on November 11, 2019 (GMT -0600)
Hays Regional

Weather History for KHYS - October, 2019

Change the Weather History Date:

Tuesday, October 22, 2019

  Actual Average Record
Temperature  
Mean Temperature 49 °F -  
Max Temperature 66 °F 63 °F 87 °F (2003)
Min Temperature 34 °F 40 °F 21 °F (2006)
Degree Days  
Heating Degree Days 16    
Moisture  
Dew Point 28 °F    
Average Humidity 47    
Maximum Humidity 67    
Minimum Humidity 24    
Precipitation  
Precipitation 0.00 in - - ()
Sea Level Pressure  
Sea Level Pressure 30.06 in    
Wind  
Wind Speed 11 mph (West)    
Max Wind Speed 20 mph    
Max Gust Speed 32 mph    
Visibility 10 miles    
Events      
Averages and records for this station are not official NWS values.
T = Trace of Precipitation, MM = Missing Value Source: NWS Daily Summary

Daily Weather History Graph

Daily Weather History Graph

Search for Another Location

Airport or City:

Astronomy

Oct. 22, 2019 Rise Set
Actual Time 7:53 AM CDT 6:49 PM CDT
Civil Twilight 7:26 AM CDT 7:16 PM CDT
Nautical Twilight 6:55 AM CDT 7:47 PM CDT
Astronomical Twilight 6:24 AM CDT 8:18 PM CDT
Moon 1:09 AM CDT (10/22) 3:55 PM CDT (10/22)
Length of Visible Light 11h 49m
Length of Day
10h 55m
Last Quarter, 37% of the Moon is Illuminated
Oct 22
Last Quarter
Oct 27
New
Nov 4
First Quarter
Nov 12
Full
Nov 19
Last Quarter

Hourly Weather History & Observations

Time (CDT) Temp. Windchill Dew Point Humidity Pressure Visibility Wind Dir Wind Speed Gust Speed Precip Events Conditions
12:56 AM 35.1 °F 28.6 °F 23.0 °F 61% 30.09 in 10.0 mi West 8.1 mph - N/A   Clear
1:56 AM 37.0 °F 29.8 °F 24.1 °F 59% 30.09 in 10.0 mi WNW 10.4 mph - N/A   Clear
2:56 AM 35.1 °F 28.6 °F 24.1 °F 64% 30.11 in 10.0 mi West 8.1 mph - N/A   Clear
3:56 AM 34.0 °F 27.2 °F 24.1 °F 67% 30.11 in 10.0 mi WSW 8.1 mph - N/A   Clear
4:56 AM 37.0 °F 28.9 °F 26.1 °F 65% 30.10 in 10.0 mi WNW 12.7 mph - N/A   Clear
5:56 AM 37.9 °F 30.0 °F 27.0 °F 65% 30.11 in 10.0 mi WNW 12.7 mph - N/A   Clear
6:56 AM 37.9 °F 30.0 °F 27.0 °F 65% 30.13 in 10.0 mi WNW 12.7 mph - N/A   Clear
7:56 AM 37.9 °F 29.6 °F 26.1 °F 62% 30.14 in 10.0 mi WNW 13.8 mph - N/A   Clear
8:56 AM 42.1 °F 34.9 °F 27.0 °F 55% 30.16 in 10.0 mi WNW 13.8 mph - N/A   Clear
9:56 AM 46.9 °F - 28.0 °F 48% 30.18 in 10.0 mi WNW 16.1 mph - N/A   Clear
10:56 AM 53.1 °F - 30.0 °F 41% 30.17 in 10.0 mi WNW 15.0 mph - N/A   Clear
11:56 AM 55.9 °F - 28.9 °F 36% 30.15 in 10.0 mi West 17.3 mph 23.0 mph N/A   Clear
12:56 PM 60.1 °F - 28.0 °F 30% 30.13 in 10.0 mi NW 19.6 mph 25.3 mph N/A   Clear
1:56 PM 62.1 °F - 27.0 °F 26% 30.08 in 10.0 mi West 19.6 mph 31.1 mph N/A   Partly Cloudy
2:56 PM 64.0 °F - 26.1 °F 24% 30.04 in 10.0 mi WNW 18.4 mph 32.2 mph N/A   Mostly Cloudy
3:56 PM 64.9 °F - 27.0 °F 24% 30.01 in 10.0 mi WNW 19.6 mph 25.3 mph N/A   Partly Cloudy
4:56 PM 64.0 °F - 27.0 °F 25% 30.01 in 10.0 mi WNW 16.1 mph 23.0 mph N/A   Mostly Cloudy
5:56 PM 63.0 °F - 28.0 °F 27% 29.99 in 10.0 mi WNW 11.5 mph - N/A   Partly Cloudy
6:56 PM 59.0 °F - 30.0 °F 33% 29.98 in 10.0 mi SW 5.8 mph - N/A   Partly Cloudy
7:56 PM 52.0 °F - 30.9 °F 45% 29.98 in 10.0 mi SSW 3.5 mph - N/A   Clear
8:56 PM 46.9 °F - 30.9 °F 54% 29.96 in 10.0 mi SSE 6.9 mph - N/A   Clear
9:56 PM 48.0 °F - 30.9 °F 52% 29.94 in 10.0 mi Calm Calm - N/A   Partly Cloudy
10:56 PM 48.0 °F - 32.0 °F 54% 29.92 in 10.0 mi Calm Calm - N/A   Clear
11:56 PM 50.0 °F - 30.9 °F 48% 29.90 in 10.0 mi SW 3.5 mph - N/A   Clear